KAZSAT-3

Last updated on May 23, 2019, 3:05 a.m. UTC

1 39728U 14023B   19142.69065576  .00000054  00000-0  00000+0 0  9998
2 39728   0.0134 324.2580 0001200 174.0844  48.8066  1.00262979 18540
UTC
Height (km)
Latitude
Longitude
Inclination
Orbital Period
UTC large
Height (km)
Speed (km/s)
/
Latitude / Longitude
Inclination (degrees)
Orbital Period (minutes)
Azimuth
Elevation
Range (km)
Doppler Factor
iOS Compass Heading
iOS Angle

Next 30 passes for location: Hong Kong

Rise time Rise Azimuth (degrees) Set time Set Azimuth (degrees) Duration Max altitude (degrees)

No matching passes for this satellites